Flight Track Log - Related Links

Times and Time Zones

All times are in EDT time to prevent confusion due to time zone crossing. See the UAL708 flight status page for this flight to view local times or setup timezone preferences in your user account.

Time Position Orientation Groundspeed Altitude Reporting Facility
EDT Latitude Longitude Course Direction KTS MPH feet Rate Location/Type
Thu 07:11:17 AM 29.9553 -95.3419 276° West 163 188 1,000  Level Houston Center
Thu 07:12:06 AM 29.9206 -95.3750 220° Southwest 236 272 2,900 2,538 Climbing Houston Center
Thu 07:13:00 AM 30.0245 -95.7025 276° West  Level FlightAware Approximate
Thu 07:13:01 AM 29.9119 -95.4411 261° West 273 314 5,400  Level Houston Center
Thu 07:13:19 AM 29.9144 -95.4533 283° West 258 297 5,900 3,077 Climbing Houston Center
Thu 07:14:00 AM 30.0355 -95.8262 276° West  Level FlightAware Approximate
Thu 07:14:19 AM 29.9344 -95.5564 283° West 277 319 9,400  Level Houston Center
Thu 07:15:00 AM 30.0459 -95.9501 276° West  Level FlightAware Approximate
Thu 07:15:20 AM 29.9583 -95.6469 287° West 293 337 11,200  Level Houston Center
Thu 07:16:00 AM 30.0686 -96.0706 276° West  Level FlightAware Approximate
Thu 07:16:21 AM 29.9872 -95.7519 288° West 340 391 12,900  Level Houston Center
Thu 07:17:21 AM 30.0169 -95.8647 287° West 365 420 15,200 2,430 Climbing Houston Center
Thu 07:18:22 AM 30.0478 -95.9783 287° West 372 428 17,800 2,410 Climbing Houston Center
Thu 07:19:23 AM 30.0756 -96.0950 285° West 374 430 20,100 1,983 Climbing Houston Center
Thu 07:20:23 AM 30.0942 -96.2164 280° West 386 444 21,800 2,033 Climbing Houston Center
Thu 07:21:24 AM 30.1125 -96.3383 280° West 388 447 24,200 1,967 Climbing Houston Center
Thu 07:22:25 AM 30.1317 -96.4678 280° West 388 447 25,800 1,537 Climbing Houston Center
Thu 07:23:25 AM 30.1522 -96.5919 281° West 390 449 27,300 1,488 Climbing Houston Center
Thu 07:24:26 AM 30.1714 -96.7194 280° West 395 455 28,800 1,426 Climbing Houston Center
Thu 07:25:27 AM 30.1903 -96.8486 280° West 399 459 30,200 1,525 Climbing Houston Center
Thu 07:26:28 AM 30.2089 -96.9761 280° West 400 460 31,900 893 Climbing Houston Center
Thu 07:27:28 AM 30.2272 -97.1017 280° West 394 453 32,000 50 Climbing Houston Center
Thu 07:28:29 AM 30.2447 -97.2264 279° West 389 448 32,000  Level Houston Center
Thu 07:29:30 AM 30.2642 -97.3514 280° West 390 449 32,000  Level Houston Center
Thu 07:30:31 AM 30.2817 -97.4756 279° West 386 444 32,000  Level Houston Center
Thu 07:31:31 AM 30.2994 -97.6017 279° West 390 449 32,000  Level Houston Center
Thu 07:32:32 AM 30.3178 -97.7256 280° West 387 445 32,000  Level Houston Center
Thu 07:33:33 AM 30.3358 -97.8492 280° West 386 444 32,000  Level Houston Center
Thu 07:34:34 AM 30.3542 -97.9719 280° West 383 441 32,000  Level Houston Center
Thu 07:35:35 AM 30.3706 -98.0944 279° West 383 441 32,000  Level Houston Center
Thu 07:36:35 AM 30.3872 -98.2172 279° West 382 440 32,000  Level Houston Center
Thu 07:37:36 AM 30.4033 -98.3400 279° West 380 437 32,000  Level Houston Center
Thu 07:38:37 AM 30.4200 -98.4611 279° West 378 435 32,000  Level Houston Center
Thu 07:39:38 AM 30.4364 -98.5839 279° West 381 438 32,000  Level Houston Center
Thu 07:40:39 AM 30.4531 -98.7047 279° West 378 435 32,000  Level Houston Center
Thu 07:41:40 AM 30.4806 -98.8253 285° West 384 442 32,000  Level Houston Center
Thu 07:42:41 AM 30.5742 -98.9058 323° Northwest 416 479 32,000  Level Houston Center
Thu 07:43:42 AM 30.6844 -98.9664 335° Northwest 431 496 32,000  Level Houston Center
Thu 07:44:42 AM 30.7942 -99.0289 334° Northwest 433 498 32,000  Level Houston Center
Thu 07:45:43 AM 30.9017 -99.0917 333° Northwest 429 494 32,000  Level Houston Center
Thu 07:46:44 AM 31.0125 -99.1547 334° Northwest 433 498 32,000  Level Houston Center
Thu 07:47:45 AM 31.1125 -99.2117 334° Northwest 436 502 32,000  Level Houston Center
Thu 07:48:46 AM 31.2211 -99.2736 334° Northwest 435 501 32,000  Level Houston Center
Thu 07:49:47 AM 31.3419 -99.3422 334° Northwest 433 498 32,000  Level Houston Center
Thu 07:50:15 AM 31.3983 -99.3725 335° Northwest 424 488 32,000  Level Fort Worth Center
Thu 07:51:15 AM 31.5039 -99.4381 332° Northwest 424 488 32,000  Level Fort Worth Center
Thu 07:52:15 AM 31.6011 -99.4914 335° Northwest 424 488 32,000  Level Fort Worth Center
Thu 07:53:15 AM 31.7106 -99.5550 334° Northwest 424 488 32,000  Level Fort Worth Center
Thu 07:54:15 AM 31.8203 -99.6161 335° Northwest 424 488 32,000  Level Fort Worth Center
Thu 07:55:15 AM 31.9256 -99.6800 333° Northwest 424 488 32,000  Level Fort Worth Center
Thu 07:56:15 AM 32.0350 -99.7464 333° Northwest 429 494 32,000  Level Fort Worth Center
Thu 07:57:15 AM 32.1425 -99.8081 334° Northwest 429 494 32,000  Level Fort Worth Center
Thu 07:58:15 AM 32.2517 -99.8747 333° Northwest 429 494 32,000  Level Fort Worth Center
Thu 07:59:15 AM 32.3611 -99.9392 334° Northwest 429 494 32,000  Level Fort Worth Center
Thu 08:00:15 AM 32.4706 -100.0039 333° Northwest 429 494 32,000  Level Fort Worth Center
Thu 08:01:15 AM 32.5817 -100.0711 333° Northwest 429 494 32,000  Level Fort Worth Center
Thu 08:02:15 AM 32.6911 -100.1361 333° Northwest 429 494 32,000  Level Fort Worth Center
Thu 08:03:15 AM 32.8022 -100.2014 334° Northwest 434 499 32,000  Level Fort Worth Center
Thu 08:04:15 AM 32.9217 -100.2719 334° Northwest 434 499 32,000  Level Fort Worth Center
Thu 08:05:15 AM 33.0308 -100.3372 333° Northwest 434 499 32,000  Level Fort Worth Center
Thu 08:06:15 AM 33.1381 -100.4003 334° Northwest 434 499 32,000  Level Fort Worth Center
Thu 08:07:15 AM 33.2469 -100.4661 333° Northwest 434 499 32,000  Level Fort Worth Center
Thu 08:08:15 AM 33.3581 -100.5347 333° Northwest 439 505 32,000  Level Fort Worth Center
Thu 08:09:15 AM 33.4669 -100.5983 334° Northwest 439 505 32,000  Level Fort Worth Center
Thu 08:10:15 AM 33.5758 -100.6644 333° Northwest 439 505 32,000  Level Fort Worth Center
Thu 08:11:15 AM 33.6869 -100.7311 333° Northwest 445 512 32,000  Level Fort Worth Center
Thu 08:12:15 AM 33.7936 -100.7975 333° Northwest 443 510 32,000  Level Fort Worth Center
Thu 08:13:15 AM 33.9044 -100.8644 333° Northwest 443 510 32,000  Level Fort Worth Center
Thu 08:14:15 AM 34.0153 -100.9339 333° Northwest 443 510 32,000  Level Fort Worth Center
Thu 08:16:08 AM 34.2083 -101.0547 333° Northwest 441 507 32,000  Level Albuquerque Center
Thu 08:17:09 AM 34.3200 -101.1219 334° Northwest 447 514 32,000  Level Albuquerque Center
Thu 08:18:09 AM 34.4306 -101.1908 333° Northwest 446 513 32,000  Level Albuquerque Center
Thu 08:19:10 AM 34.5419 -101.2619 332° Northwest 451 519 32,000  Level Albuquerque Center
Thu 08:20:10 AM 34.6536 -101.3322 333° Northwest 452 520 32,000  Level Albuquerque Center
Thu 08:21:11 AM 34.7642 -101.4011 333° Northwest 448 516 32,000  Level Albuquerque Center
Thu 08:22:12 AM 34.8761 -101.4722 332° Northwest 453 521 32,000  Level Albuquerque Center
Thu 08:23:12 AM 35.0006 -101.5511 333° Northwest 453 521 32,000  Level Albuquerque Center
Thu 08:24:13 AM 35.1131 -101.6222 333° Northwest 453 521 32,000  Level Albuquerque Center
Thu 08:25:13 AM 35.2303 -101.6950 333° Northwest 451 519 32,000  Level Albuquerque Center
Thu 08:26:14 AM 35.3531 -101.7533 339° North 464 534 32,000  Level Albuquerque Center
Thu 08:27:14 AM 35.4756 -101.8100 339° North 468 539 32,000  Level Albuquerque Center
Thu 08:28:15 AM 35.5847 -101.8625 339° North 468 539 32,000  Level Albuquerque Center
Thu 08:29:16 AM 35.7081 -101.9194 339° North 471 542 32,000  Level Albuquerque Center
Thu 08:30:16 AM 35.8317 -101.9778 339° North 475 547 32,000  Level Albuquerque Center
Thu 08:31:17 AM 35.9567 -102.0347 340° North 478 550 32,000  Level Albuquerque Center
Thu 08:32:17 AM 36.0803 -102.0922 339° North 476 548 32,000  Level Albuquerque Center
Thu 08:33:18 AM 36.2025 -102.1500 339° North 471 542 32,000  Level Albuquerque Center
Thu 08:34:19 AM 36.3219 -102.2075 339° North 464 534 32,000  Level Albuquerque Center
Thu 08:35:19 AM 36.4431 -102.2633 340° North 463 533 32,000  Level Albuquerque Center
Thu 08:36:20 AM 36.5872 -102.3325 339° North 463 533 32,000  Level Albuquerque Center
Thu 08:37:20 AM 36.7081 -102.3900 339° North 465 535 32,000  Level Albuquerque Center
Thu 08:38:21 AM 36.8300 -102.4489 339° North 468 539 32,000  Level Albuquerque Center
Thu 08:39:22 AM 36.9522 -102.5075 339° North 475 547 32,000  Level Albuquerque Center
Thu 08:40:22 AM 37.0642 -102.5617 339° North 478 550 32,000  Level Albuquerque Center
Thu 08:41:23 AM 37.2033 -102.6289 339° North 479 551 32,000  Level Albuquerque Center
Thu 08:42:24 AM 37.3225 -102.6867 339° North 480 552 32,000  Level Albuquerque Center
Thu 08:43:13 AM 37.4228 -102.7356 339° North 487 560 32,000  Level Denver Center
Thu 08:44:14 AM 37.5600 -102.8111 336° Northwest 485 558 32,000  Level Denver Center
Thu 08:45:15 AM 37.6694 -102.8897 330° Northwest 476 548 32,000  Level Denver Center
Thu 08:46:16 AM 37.7772 -102.9711 329° Northwest 474 545 32,000  Level Denver Center
Thu 08:47:17 AM 37.9017 -103.0661 329° Northwest 470 541 32,000  Level Denver Center
Thu 08:48:17 AM 38.0064 -103.1467 329° Northwest 464 534 32,000  Level Denver Center
Thu 08:49:18 AM 38.1131 -103.2278 329° Northwest 467 537 32,000  Level Denver Center
Thu 08:50:19 AM 38.2372 -103.3236 329° Northwest 468 539 32,000  Level Denver Center
Thu 08:51:20 AM 38.3556 -103.4139 329° Northwest 470 541 32,000  Level Denver Center
Thu 08:52:21 AM 38.4683 -103.5006 329° Northwest 467 537 32,000 -148 Level Denver Center
Thu 08:53:22 AM 38.5742 -103.5850 328° Northwest 470 541 31,700 -1,525 Descending Denver Center
Thu 08:54:23 AM 38.6806 -103.6667 329° Northwest 467 537 28,900 -2,777 Descending Denver Center
Thu 08:55:23 AM 38.8011 -103.7631 328° Northwest 456 525 26,100 -2,430 Descending Denver Center
Thu 08:56:24 AM 38.8933 -103.8339 329° Northwest 437 503 24,000 -2,213 Descending Denver Center
Thu 08:57:25 AM 38.9922 -103.9111 329° Northwest 416 479 21,600 -2,311 Descending Denver Center
Thu 08:58:26 AM 39.0856 -103.9858 328° Northwest 397 457 19,300 -1,820 Descending Denver Center
Thu 08:59:27 AM 39.1744 -104.0561 329° Northwest 376 433 17,900 -1,131 Descending Denver Center
Thu 09:00:28 AM 39.2564 -104.1278 326° Northwest 339 390 17,000 -984 Descending Denver Center
Thu 09:01:29 AM 39.2872 -104.2433 289° West 320 368 15,900 -1,131 Descending Denver Center
Thu 09:02:30 AM 39.3094 -104.3428 286° West 295 339 14,700 -1,240 Descending Denver Center
Thu 09:03:30 AM 39.3544 -104.4189 307° West 270 311 13,400 -1,339 Descending Denver Center
Thu 09:04:31 AM 39.4097 -104.4789 320° Northwest 261 300 12,000 -1,475 Descending Denver Center
Thu 09:05:32 AM 39.4650 -104.5392 320° Northwest 261 300 10,400 -1,377 Descending Denver Center
Thu 09:06:33 AM 39.5108 -104.5881 321° Northwest 253 291 9,200 -689 Descending Denver Center
Thu 09:07:34 AM 39.5858 -104.6450 330° Northwest 253 291 9,000 -98 Descending Denver Center
Thu 09:08:35 AM 39.6528 -104.6628 348° North 243 280 9,000  Level Denver Center

Login

Don't have an account? Register now (free) for customized features, flight alerts, and more!